Location: Harbor Island
(32.3990°N, 80.4435°W)
Time: 01:20:15
(UTC-04:00)

Daily predictions for brighter satellites

Satellite Brightness Start Highest point End
(mag) Time Altitude Azimuth Time Altitude Azimuth Time Altitude Azimuth
CENTAUR R/B 4.1 00:25:29 10° NNW 00:30:30 41° N 00:30:30 41° N
Resurs 1-4 Rocket 4.3 03:02:37 10° NNE 03:04:34 21° NE 03:04:34 21° NE
CZ-2D R/B 3.8 03:23:08 10° NNE 03:25:45 29° NNE 03:25:45 29° NNE
CZ-3A R/B 4.2 03:38:43 10° NW 03:50:25 16° SE 03:51:33 10° SE
ADEOS II 4.4 03:49:16 10° NE 03:52:33 17° E 03:54:27 14° ESE
Cosmos 2082 Rocket 3.7 03:53:57 27° ESE 03:54:19 27° ESE 03:58:56 10° NE
SL-16 R/B 3.3 04:04:43 42° NNW 04:04:43 42° NNW 04:08:43 10° NNW
USA 229 DEB 4.2 04:08:52 10° NW 04:14:06 49° WNW 04:14:06 49° WNW
USA 229 4.1 04:08:58 10° NW 04:14:20 51° WNW 04:14:20 51° WNW
Meteor 2-10 4.2 04:22:32 76° NNW 04:22:32 76° NNW 04:27:47 10° N
Cosmos 2061 Rocket 4.0 04:28:51 57° S 04:30:17 84° E 04:36:44 10° N
In-Cosmos 22 Rocket 4.2 04:27:52 10° N 04:33:13 73° E 04:34:28 52° SSE
Cosmos 923 Rocket 3.9 04:34:15 76° SE 04:34:28 78° ESE 04:39:43 10° NNE
Cosmos 2016 Rocket 4.0 04:34:35 43° SSE 04:36:40 74° E 04:42:45 10° N
Cosmos 1151 Rocket 3.2 04:41:22 68° NNE 04:41:22 68° NNE 04:45:10 10° N
Cosmos 1933 Rocket 3.9 04:38:23 10° N 04:42:49 63° E 04:43:41 51° SE
Hubble Space Telescope 2.1 04:44:31 32° SE 04:44:31 32° SE 04:46:59 10° ESE
Meteor 1-27 4.2 04:44:07 45° S 04:45:55 79° E 04:51:32 10° N
Cosmos 1833 Rocket 2.6 04:45:26 56° S 04:46:41 83° ESE 04:52:21 10° NNE
Resurs 1-4 Rocket 3.8 04:43:17 10° NNW 04:45:39 18° NW 04:45:39 18° NW
ARIANE 5 R/B 4.1 04:44:05 10° NNW 04:46:56 22° NW 04:46:56 22° NW
Delta 128 4.4 04:48:17 55° SSW 04:49:05 59° S 04:55:54 10° ESE
NOSS 3-1 (C) 4.0 04:41:23 10° NNW 04:49:18 84° WSW 04:57:51 10° SSE
Cosmos 1725 Rocket 4.2 04:47:26 22° S 04:51:35 67° E 04:57:41 10° NNE
Cosmos 1680 Rocket 3.4 04:51:05 55° S 04:52:19 87° ESE 04:57:39 10° NNE
Cosmos 2100 Rocket 4.3 04:56:34 44° WSW 04:57:25 46° W 05:03:32 10° N
Cosmos 1802 Rocket 4.0 04:57:19 46° SW 04:58:52 59° W 05:05:04 10° N
Cosmos 2112 Rocket 4.0 04:58:06 43° SSW 04:59:53 87° ESE 05:05:15 10° NNE
CZ-4B R/B 3.3 05:01:55 10° NNE 05:06:26 70° E 05:08:48 27° S
Okean O Rocket 2.2 05:02:13 10° NNE 05:06:33 55° E 05:09:23 20° S
CZ-2D R/B 4.1 05:05:31 10° NW 05:07:04 13° NW 05:07:04 13° NW
Tiangong 2 3.1 05:08:15 21° NNW 05:08:22 21° NNW 05:10:53 10° NE
Shenzhou-11 Module 4.5 05:14:00 15° NNW 05:14:34 15° NNW 05:16:30 10° NNE
Cosmos 1455 2.1 05:16:37 57° WSW 05:16:54 59° W 05:20:36 10° N
Cosmos 2278 3.6 05:12:55 10° NNW 05:18:35 77° WSW 05:24:12 10° SSE
Geosat FO 4.5 05:16:20 10° NNE 05:19:57 85° WNW 05:20:57 46° SSW
Cosmos 1697 Rocket 3.3 05:17:38 10° NNW 05:23:14 60° ENE 05:28:48 10° SSE
Tsikada Rocket 4.0 05:18:05 10° N 05:24:27 87° E 05:30:51 10° S
Cosmos 1470 Rocket 4.4 05:22:46 10° NNW 05:26:15 30° W 05:26:15 30° W
COSMOS 2487 4.0 05:28:16 22° NW 05:28:16 22° NW 05:30:40 10° NNW
Aurora 2 Rocket 4.0 05:31:51 13° S 05:32:05 13° SSE 05:33:38 10° SE
ADEOS II 2.4 05:27:25 10° N 05:32:25 46° WNW 05:35:23 23° SW
CZ-4B DEB 4.1 05:32:22 10° N 05:37:53 79° WNW 05:43:20 10° SSW
Cosmos 2082 Rocket 3.0 05:35:50 24° WSW 05:38:11 32° WNW 05:43:13 10° N
Lacrosse 5 1.8 05:33:50 10° NW 05:38:55 90° SW 05:43:59 10° SE
Cosmos 2084 4.2 05:40:10 25° W 05:41:35 31° NW 05:45:06 10° N
ATLAS 2A CENTAUR R/B 3.7 05:41:25 16° SSW 05:42:02 17° S 05:45:18 10° SE
Meteor PRIRODA 3.7 05:40:45 10° NNE 05:44:24 79° ESE 05:48:01 10° S
Cosmos 1869 Rocket 3.5 05:44:20 10° N 05:48:48 82° W 05:53:12 10° S
OAO 2 Rocket 3.4 05:46:15 19° W 05:49:49 72° N 05:54:48 10° ENE
Lacrosse 4 Rocket 2.7 05:46:07 10° S 05:50:16 42° ESE 05:54:31 10° NE
Cosmos 2242 Rocket 4.3 05:52:18 10° S 05:56:42 58° E 06:01:04 10° NNE
Timation 2 Rocket 4.1 05:53:54 12° SW 05:59:22 53° WNW 06:05:20 10° NNE
Abrixas 4.0 06:00:12 15° SSW 06:00:12 15° SSW 06:01:20 10° S
CZ-4B R/B 3.4 05:55:33 10° N 06:00:47 50° WNW 06:05:54 10° SW
Cosmos 1869 3.8 05:57:18 11° SSW 06:00:47 37° W 06:04:30 10° NNW
Landsat 4 3.7 05:58:22 10° S 06:02:02 57° W 06:05:44 10° NNW
Cosmos 482 Debris 4.4 06:01:31 10° WNW 06:04:26 48° SW 06:09:22 10° SSE
Cosmos 1892 4.4 06:03:01 10° NW 06:05:09 14° W 06:06:08 13° WSW
ATLAS 2AS CENTAUR R/B 4.0 05:58:10 10° NNW 06:05:50 51° NE 06:12:52 10° SE
Cosmos 1656 4.2 06:01:14 10° NW 06:06:21 35° WSW 06:11:27 10° SSW
Cosmos 1408 2.6 06:05:20 10° NNW 06:08:51 52° W 06:12:20 10° S
Meteor 1-31 Rocket 2.9 06:05:52 10° N 06:09:45 57° WNW 06:13:36 10° SSW
Kakehashi 4.2 06:05:37 10° W 06:11:17 76° S 06:23:25 10° E
Cosmos 1825 2.3 06:09:12 10° NNW 06:12:54 51° W 06:16:35 10° S
Cosmos 1371 Rocket 4.0 06:08:08 10° NNW 06:13:21 69° WSW 06:18:36 10° S
Cosmos 2233 Rocket 4.5 06:09:55 10° SW 06:15:31 37° W 06:21:10 10° NNW
NOSS 3-3 (C) 4.1 06:10:25 10° SW 06:16:22 59° WNW 06:22:46 10° NNE
NOSS 3-3 (A) 4.1 06:10:25 10° SW 06:16:22 58° WNW 06:22:47 10° NNE
GPS 2-04 Rocket1 2.3 06:15:45 10° WSW 06:19:05 82° SSE 06:22:35 10° ENE
Cosmos 2322 Rocket 4.3 06:14:04 10° N 06:19:07 33° ENE 06:24:06 10° SE
NOSS 7 (H) 4.4 06:17:07 10° SW 06:20:43 66° WNW 06:23:59 10° NNE
NOSS 2-1 (C) 3.6 06:18:41 10° SW 06:22:17 46° WNW 06:26:04 10° NNE
NOSS 2-1 (D) 3.6 06:18:48 10° SW 06:22:22 44° WNW 06:26:10 10° NNE
USA 116 4.3 06:17:12 10° S 06:22:27 81° WSW 06:27:18 10° NNW
Hubble Space Telescope 1.7 06:20:12 10° WSW 06:23:57 33° SSW 06:27:41 10° SE
Cosmos 1624 Rocket 4.0 06:23:49 10° NNW 06:28:57 59° WSW 06:34:03 10° S
USA 234 3.3 06:24:42 10° NE 06:31:14 76° NW 06:37:46 10° SW
SL-16 R/B 3.8 06:26:15 10° N 06:31:38 42° ENE 06:36:59 10° SE
